Buffalo, MN

9:14 PM CST on December 11, 2019 (GMT -0600)
Buffalo

Weather History for KCFE - October, 2019

Change the Weather History Date:

Monday, October 28, 2019

  Actual Average (KMIC) Record (KMIC)
Temperature  
Mean Temperature 32 °F -  
Max Temperature 36 °F 49 °F 72 °F (2016)
Min Temperature 28 °F 34 °F 24 °F (2008)
Degree Days  
Heating Degree Days 33    
Moisture  
Dew Point 17 °F    
Average Humidity 57    
Maximum Humidity 71    
Minimum Humidity 39    
Precipitation  
Precipitation 0.00 in - - ()
Sea Level Pressure  
Sea Level Pressure 30.09 in    
Wind  
Wind Speed - (North)    
Max Wind Speed -    
Max Gust Speed -    
Visibility 10 miles    
Events      
Averages and records for this station are not official NWS values.
T = Trace of Precipitation, MM = Missing Value Source: NWS Daily Summary

Daily Weather History Graph

Daily Weather History Graph

Search for Another Location

Airport or City:

Astronomy

Oct. 28, 2019 Rise Set
Actual Time 7:48 AM CDT 6:09 PM CDT
Civil Twilight 7:17 AM CDT 6:39 PM CDT
Nautical Twilight 6:43 AM CDT 7:14 PM CDT
Astronomical Twilight 6:09 AM CDT 7:48 PM CDT
Moon 8:09 AM CDT (10/28) 6:54 PM CDT (10/28)
Length of Visible Light 11h 21m
Length of Day
10h 20m
New Moon, 0% of the Moon is Illuminated
Oct 28
New Moon
Nov 4
First Quarter
Nov 12
Full
Nov 19
Last Quarter
Nov 26
New

Hourly Weather History & Observations

Time (CDT) Temp. Dew Point Humidity Pressure Visibility Wind Dir Wind Speed Gust Speed Precip Events Conditions
12:15 AM 32.0 °F 22.1 °F 67% 30.09 in 10.0 mi North - - N/A   Clear
12:35 AM 32.0 °F 21.6 °F 65% 30.09 in 10.0 mi North - - N/A   Clear
12:55 AM 31.8 °F 21.2 °F 65% 30.09 in 10.0 mi North - - N/A   Clear
1:15 AM 31.1 °F 20.3 °F 64% 30.11 in 10.0 mi North - - N/A   Clear
1:16 AM 31.1 °F 20.3 °F 64% 30.11 in 10.0 mi North - - N/A   Clear
1:35 AM 30.7 °F 20.7 °F 66% 30.11 in 10.0 mi North - - N/A   Clear
1:55 AM 30.0 °F 20.5 °F 68% 30.09 in 10.0 mi North - - N/A   Clear
2:15 AM 29.7 °F 20.1 °F 68% 30.10 in 10.0 mi North - - N/A   Clear
2:16 AM 29.7 °F 20.1 °F 68% 30.10 in 10.0 mi North - - N/A   Clear
2:35 AM 29.7 °F 19.4 °F 66% 30.09 in 10.0 mi North - - N/A   Scattered Clouds
2:55 AM 30.2 °F 20.5 °F 67% 30.11 in 10.0 mi North - - N/A   Mostly Cloudy
2:56 AM 30.2 °F 20.5 °F 67% 30.11 in 10.0 mi North - - N/A   Mostly Cloudy
3:15 AM 30.2 °F 21.2 °F 69% 30.11 in 10.0 mi North - - N/A   Overcast
3:35 AM 30.2 °F 21.9 °F 71% 30.11 in 10.0 mi North - - N/A   Overcast
3:36 AM 30.2 °F 21.7 °F 71% 30.11 in 10.0 mi North - - N/A   Overcast
3:55 AM 30.7 °F 20.1 °F 65% 30.10 in 10.0 mi North - - N/A   Overcast
4:15 AM 30.6 °F 18.1 °F 60% 30.09 in 10.0 mi North - - N/A   Overcast
4:35 AM 30.2 °F 17.6 °F 60% 30.09 in 10.0 mi North - - N/A   Overcast
4:55 AM 29.7 °F 16.2 °F 57% 30.10 in 10.0 mi North - - N/A   Overcast
5:15 AM 29.3 °F 16.0 °F 58% 30.09 in 10.0 mi North - - N/A   Mostly Cloudy
5:35 AM 28.8 °F 16.7 °F 61% 30.09 in 10.0 mi North - - N/A   Scattered Clouds
5:55 AM 28.4 °F 17.2 °F 63% 30.08 in 10.0 mi North - - N/A   Scattered Clouds
5:56 AM 28.4 °F 17.1 °F 63% 30.08 in 10.0 mi North - - N/A   Scattered Clouds
6:15 AM 28.9 °F 17.4 °F 62% 30.08 in 10.0 mi North - - N/A   Mostly Cloudy
6:35 AM 28.8 °F 17.4 °F 63% 30.08 in 10.0 mi North - - N/A   Mostly Cloudy
6:55 AM 28.8 °F 17.6 °F 63% 30.09 in 10.0 mi North - - N/A   Mostly Cloudy
7:15 AM 28.9 °F 17.6 °F 63% 30.08 in 10.0 mi North - - N/A   Overcast
7:35 AM 28.9 °F 17.4 °F 62% 30.09 in 10.0 mi North - - N/A   Overcast
7:55 AM 29.1 °F 17.2 °F 61% 30.10 in 10.0 mi North - - N/A   Overcast
8:15 AM 29.3 °F 18.0 °F 63% 30.11 in 10.0 mi North - - N/A   Overcast
8:35 AM 29.7 °F 17.8 °F 61% 30.09 in 10.0 mi North - - N/A   Overcast
8:36 AM 29.7 °F 17.8 °F 61% 30.09 in 10.0 mi North - - N/A   Overcast
8:55 AM 30.0 °F 18.0 °F 61% 30.10 in 10.0 mi North - - N/A   Overcast
9:15 AM 30.2 °F 16.2 °F 56% 30.11 in 10.0 mi North - - N/A   Overcast
9:16 AM 30.2 °F 16.2 °F 56% 30.11 in 10.0 mi North - - N/A   Overcast
9:35 AM 30.7 °F 17.1 °F 57% 30.12 in 10.0 mi North - - N/A   Overcast
9:55 AM 30.9 °F 17.2 °F 57% 30.12 in 10.0 mi North - - N/A   Overcast
10:35 AM 31.6 °F 16.2 °F 53% 30.11 in 10.0 mi North - - N/A   Overcast
10:55 AM 32.0 °F 16.2 °F 52% 30.11 in 10.0 mi North - - N/A   Overcast
11:15 AM 33.8 °F 18.3 °F 53% 30.11 in 10.0 mi North - - N/A   Overcast
11:16 AM 33.8 °F 18.1 °F 53% 30.11 in 10.0 mi North - - N/A   Overcast
11:35 AM 32.0 °F 15.8 °F 51% 30.10 in 10.0 mi North - - N/A   Mostly Cloudy
11:55 AM 32.4 °F 14.5 °F 48% 30.10 in 10.0 mi North - - N/A   Scattered Clouds
12:15 PM 33.8 °F 15.4 °F 47% 30.10 in 10.0 mi North - - N/A   Scattered Clouds
12:35 PM 34.2 °F 14.2 °F 44% 30.10 in 10.0 mi North - - N/A   Scattered Clouds
12:55 PM 34.7 °F 15.4 °F 45% 30.09 in 10.0 mi North - - N/A   Clear
1:15 PM 34.7 °F 13.5 °F 42% 30.09 in 10.0 mi North - - N/A   Clear
1:35 PM 35.6 °F 13.6 °F 41% 30.08 in 10.0 mi North - - N/A   Clear
2:15 PM 35.6 °F 14.2 °F 42% 30.07 in 10.0 mi North - - N/A   Clear
2:35 PM 35.8 °F 14.2 °F 41% 30.07 in 10.0 mi North - - N/A   Clear
2:55 PM 36.0 °F 14.2 °F 41% 30.07 in 10.0 mi North - - N/A   Clear
3:15 PM 36.0 °F 13.3 °F 39% 30.06 in 10.0 mi North - - N/A   Clear
3:16 PM 35.8 °F 13.1 °F 39% 30.06 in 10.0 mi North - - N/A   Clear
3:35 PM 35.6 °F 13.5 °F 40% 30.06 in 10.0 mi North - - N/A   Clear
3:55 PM 34.7 °F 14.9 °F 44% 30.06 in 10.0 mi North - - N/A   Clear
4:15 PM 34.5 °F 14.4 °F 44% 30.06 in 10.0 mi North - - N/A   Clear
4:35 PM 34.0 °F 14.9 °F 46% 30.06 in 10.0 mi North - - N/A   Clear
4:55 PM 34.0 °F 14.9 °F 46% 30.06 in 10.0 mi North - - N/A   Clear
5:15 PM 33.8 °F 14.5 °F 45% 30.07 in 10.0 mi North - - N/A   Clear
5:35 PM 33.8 °F 15.3 °F 47% 30.07 in 10.0 mi North - - N/A   Clear
5:36 PM 33.8 °F 15.4 °F 47% 30.07 in 10.0 mi North - - N/A   Clear
5:55 PM 33.1 °F 15.3 °F 48% 30.07 in 10.0 mi North - - N/A   Scattered Clouds
6:35 PM 32.5 °F 16.5 °F 52% 30.08 in 10.0 mi North - - N/A   Scattered Clouds
6:36 PM 32.5 °F 16.5 °F 52% 30.08 in 10.0 mi North - - N/A   Scattered Clouds
6:55 PM 32.0 °F 17.1 °F 54% 30.09 in 10.0 mi North - - N/A   Scattered Clouds
7:15 PM 32.0 °F 17.2 °F 55% 30.09 in 10.0 mi North - - N/A   Clear
7:35 PM 32.0 °F 16.9 °F 54% 30.10 in 10.0 mi North - - N/A   Clear
7:55 PM 32.0 °F 17.4 °F 55% 30.11 in 10.0 mi North - - N/A   Clear
8:15 PM 31.8 °F 18.0 °F 57% 30.10 in 10.0 mi North - - N/A   Clear
8:55 PM 31.6 °F 18.0 °F 57% 30.10 in 10.0 mi North - - N/A   Clear
9:15 PM 31.5 °F 17.6 °F 57% 30.09 in 10.0 mi North - - N/A   Clear
9:35 PM 31.1 °F 17.8 °F 58% 30.09 in 10.0 mi North - - N/A   Clear
9:36 PM 31.1 °F 17.8 °F 58% 30.09 in 10.0 mi North - - N/A   Clear
9:55 PM 31.1 °F 19.0 °F 61% 30.09 in 10.0 mi North - - N/A   Scattered Clouds
9:56 PM 31.1 °F 19.2 °F 61% 30.10 in 10.0 mi North - - N/A   Mostly Cloudy
10:15 PM 31.1 °F 18.9 °F 61% 30.09 in 10.0 mi North - - N/A   Overcast
10:16 PM 31.1 °F 18.7 °F 60% 30.09 in 10.0 mi North - - N/A   Overcast
10:55 PM 31.3 °F 18.3 °F 59% 30.11 in 10.0 mi North - - N/A   Overcast
10:56 PM 31.3 °F 18.3 °F 59% 30.11 in 10.0 mi North - - N/A   Overcast
11:15 PM 31.6 °F 18.7 °F 59% 30.11 in 10.0 mi North - - N/A   Overcast
11:35 PM 30.7 °F 19.8 °F 64% 30.12 in 10.0 mi North - - N/A   Mostly Cloudy
11:36 PM 30.7 °F 19.6 °F 63% 30.12 in 10.0 mi North - - N/A   Mostly Cloudy
11:55 PM 30.2 °F 19.9 °F 66% 30.13 in 10.0 mi North - - N/A   Scattered Clouds